Station Historical Data
Daily Summary for June 15, 2017 Units:  Metric    English   Both
« Previous Day
Next Day »
Daily Weekly Monthly Yearly Custom
  High: Low: Average:
Temperature: 28 °C 16.4 °C 21.7 °C
Dew Point: 21.7 °C 1.6 °C 14.8 °C
Humidity: 88% 35% 66%
Wind Speed: 14.5km/h 0km/h 4.5km/h
Wind Gust: 22.5km/h - -
Wind- - South
Pressure: 1015.1 hPa 1008 hPa -
Precipitation: 0 mm    
Historical Graphs
 
 
Tabular Data for June 15, 2017
Time Temperature Dew Point Pressure Wind Wind Speed Wind Gust Humidity Rainfall Rate (Hourly)
00:04 17.3 °C 3.6 °C 1015.1 hPa ENE 4.8 km/h 11.3 km/h 40% 0 mm
00:09 17.4 °C 2.9 °C 1015.1 hPa ENE 4.8 km/h 11.3 km/h 38% 0 mm
00:14 17.4 °C 2.9 °C 1014.8 hPa ENE 4.8 km/h 9.7 km/h 38% 0 mm
00:19 17.4 °C 2.9 °C 1014.8 hPa ENE 4.8 km/h 11.3 km/h 38% 0 mm
00:24 17.3 °C 2.5 °C 1014.8 hPa ENE 4.8 km/h 11.3 km/h 37% 0 mm
00:29 17.4 °C 2.2 °C 1014.8 hPa ENE 3.2 km/h 11.3 km/h 36% 0 mm
00:34 17.4 °C 1.8 °C 1014.4 hPa East 3.2 km/h 8 km/h 35% 0 mm
00:39 17.4 °C 1.8 °C 1014.4 hPa NE 3.2 km/h 9.7 km/h 35% 0 mm
00:44 17.4 °C 1.8 °C 1014.1 hPa East 4.8 km/h 11.3 km/h 35% 0 mm
00:49 17.3 °C 1.7 °C 1014.1 hPa ENE 4.8 km/h 9.7 km/h 35% 0 mm
00:54 17.3 °C 1.7 °C 1014.1 hPa ENE 4.8 km/h 12.9 km/h 35% 0 mm
00:59 17.2 °C 1.6 °C 1014.1 hPa ENE 4.8 km/h 12.9 km/h 35% 0 mm
01:04 17.2 °C 1.6 °C 1013.8 hPa East 4.8 km/h 8 km/h 35% 0 mm
01:09 17.2 °C 1.6 °C 1013.8 hPa East 3.2 km/h 8 km/h 35% 0 mm
01:14 17.2 °C 1.6 °C 1013.8 hPa East 3.2 km/h 11.3 km/h 35% 0 mm
01:19 17.1 °C 2.2 °C 1013.4 hPa East 3.2 km/h 11.3 km/h 37% 0 mm
01:24 17.1 °C 2.2 °C 1013.4 hPa East 3.2 km/h 11.3 km/h 37% 0 mm
01:29 17.1 °C 2.6 °C 1013.4 hPa ENE 3.2 km/h 8 km/h 38% 0 mm
01:34 16.9 °C 2.9 °C 1013.4 hPa ENE 3.2 km/h 8 km/h 39% 0 mm
01:39 16.9 °C 3.2 °C 1013.4 hPa ENE 4.8 km/h 9.7 km/h 40% 0 mm
01:44 16.9 °C 2.9 °C 1013.4 hPa NE 3.2 km/h 9.7 km/h 39% 0 mm
01:49 16.9 °C 3.2 °C 1013.4 hPa ENE 4.8 km/h 11.3 km/h 40% 0 mm
01:54 16.9 °C 3.6 °C 1013.4 hPa ENE 4.8 km/h 11.3 km/h 41% 0 mm
01:59 17 °C 4 °C 1013.1 hPa NE 3.2 km/h 11.3 km/h 42% 0 mm
02:04 17.1 °C 4.1 °C 1013.1 hPa ENE 3.2 km/h 11.3 km/h 42% 0 mm
02:09 17 °C 4.3 °C 1013.1 hPa ENE 3.2 km/h 11.3 km/h 43% 0 mm
02:14 17 °C 4.7 °C 1013.1 hPa ENE 3.2 km/h 6.4 km/h 44% 0 mm
02:19 17 °C 4.7 °C 1013.1 hPa ENE 1.6 km/h 6.4 km/h 44% 0 mm
02:24 17 °C 4.9 °C 1013.1 hPa ENE 3.2 km/h 6.4 km/h 45% 0 mm
02:29 16.9 °C 4.9 °C 1013.1 hPa ENE 1.6 km/h 6.4 km/h 45% 0 mm
02:34 16.9 °C 4.9 °C 1013.1 hPa NE 3.2 km/h 6.4 km/h 45% 0 mm
02:39 16.9 °C 5.5 °C 1013.1 hPa Calm   1.6 km/h 47% 0 mm
02:44 16.8 °C 5.4 °C 1012.8 hPa East 1.6 km/h 6.4 km/h 47% 0 mm
02:49 16.8 °C 5.4 °C 1012.8 hPa ENE 3.2 km/h 9.7 km/h 47% 0 mm
02:54 16.8 °C 5.4 °C 1012.8 hPa ENE 3.2 km/h 9.7 km/h 47% 0 mm
02:59 16.9 °C 5.8 °C 1012.8 hPa ENE 1.6 km/h 6.4 km/h 48% 0 mm
03:04 16.9 °C 5.8 °C 1012.8 hPa ENE 1.6 km/h 6.4 km/h 48% 0 mm
03:09 16.8 °C 6.1 °C 1012.8 hPa ENE 4.8 km/h 4.8 km/h 49% 0 mm
03:14 16.8 °C 6.3 °C 1012.8 hPa NE 3.2 km/h 8 km/h 50% 0 mm
03:19 16.9 °C 6.4 °C 1012.8 hPa ENE 4.8 km/h 6.4 km/h 50% 0 mm
03:24 17 °C 6.5 °C 1012.4 hPa ENE 3.2 km/h 8 km/h 50% 0 mm
03:29 17 °C 6.8 °C 1012.4 hPa ENE 3.2 km/h 8 km/h 51% 0 mm
03:34 17.1 °C 6.9 °C 1012.4 hPa ENE 3.2 km/h 12.9 km/h 51% 0 mm
03:39 17.2 °C 7.2 °C 1012.4 hPa ENE 3.2 km/h 12.9 km/h 52% 0 mm
03:44 17.2 °C 7.3 °C 1012.4 hPa ENE 4.8 km/h 6.4 km/h 52% 0 mm
03:49 17.3 °C 7.9 °C 1012.4 hPa NE 3.2 km/h 9.7 km/h 54% 0 mm
03:54 17.3 °C 7.9 °C 1012.4 hPa ENE 3.2 km/h 9.7 km/h 54% 0 mm
03:59 17.3 °C 7.9 °C 1012.4 hPa NE 1.6 km/h 8 km/h 54% 0 mm
04:04 17.4 °C 8.3 °C 1012.4 hPa NE 1.6 km/h 8 km/h 55% 0 mm
04:09 17.5 °C 8.3 °C 1012.4 hPa NE 3.2 km/h 4.8 km/h 55% 0 mm
04:14 17.6 °C 8.4 °C 1012.4 hPa NE 1.6 km/h 4.8 km/h 55% 0 mm
04:19 17.5 °C 8.6 °C 1012.4 hPa Calm   1.6 km/h 56% 0 mm
04:24 17.6 °C 8.7 °C 1012.4 hPa Calm   3.2 km/h 56% 0 mm
04:29 17.5 °C 8.6 °C 1012.4 hPa Calm   3.2 km/h 56% 0 mm
04:34 17.4 °C 8.6 °C 1012.4 hPa Calm   4.8 km/h 56% 0 mm
04:39 17.4 °C 8.3 °C 1012.4 hPa NE 3.2 km/h 8 km/h 55% 0 mm
04:44 17.3 °C 8.2 °C 1012.4 hPa NE 3.2 km/h 8 km/h 55% 0 mm
04:49 17.2 °C 8.1 °C 1012.4 hPa NE 3.2 km/h 9.7 km/h 55% 0 mm
04:54 16.9 °C 8.1 °C 1012.4 hPa NE 4.8 km/h 9.7 km/h 56% 0 mm
04:59 16.8 °C 8.3 °C 1012.4 hPa NE 3.2 km/h 9.7 km/h 57% 0 mm
05:04 16.7 °C 8.1 °C 1012.4 hPa NE 3.2 km/h 8 km/h 57% 0 mm
05:09 16.6 °C 8 °C 1012.4 hPa NE 4.8 km/h 8 km/h 57% 0 mm
05:14 16.5 °C 8.2 °C 1012.4 hPa NE 4.8 km/h 8 km/h 58% 0 mm
05:19 16.4 °C 8.4 °C 1012.4 hPa NE 3.2 km/h 9.7 km/h 59% 0 mm
05:24 16.4 °C 8.6 °C 1012.4 hPa NE 3.2 km/h 6.4 km/h 60% 0 mm
05:29 16.4 °C 8.8 °C 1012.4 hPa NE 3.2 km/h 6.4 km/h 61% 0 mm
05:34 16.4 °C 8.9 °C 1012.1 hPa NE 1.6 km/h 6.4 km/h 61% 0 mm
05:39 16.4 °C 9.1 °C 1012.1 hPa NE 1.6 km/h 6.4 km/h 62% 0 mm
05:44 16.6 °C 9.3 °C 1012.1 hPa ENE 1.6 km/h 6.4 km/h 62% 0 mm
05:49 16.7 °C 9.3 °C 1012.1 hPa ENE 1.6 km/h 6.4 km/h 62% 0 mm
05:54 16.7 °C 9.4 °C 1012.1 hPa Calm     62% 0 mm
05:59 16.8 °C 9.4 °C 1012.1 hPa Calm     62% 0 mm
06:04 16.9 °C 9.6 °C 1012.1 hPa Calm     62% 0 mm
06:09 17 °C 9.7 °C 1011.7 hPa Calm   3.2 km/h 62% 0 mm
06:14 17.1 °C 9.8 °C 1011.7 hPa ENE 1.6 km/h 4.8 km/h 62% 0 mm
06:19 17.2 °C 9.8 °C 1011.7 hPa NE 1.6 km/h 4.8 km/h 62% 0 mm
06:24 17.3 °C 9.9 °C 1011.7 hPa East 4.8 km/h 8 km/h 62% 0 mm
06:29 17.4 °C 10.1 °C 1011.7 hPa East 3.2 km/h 8 km/h 62% 0 mm
06:34 17.5 °C 10.4 °C 1011.7 hPa East 1.6 km/h 8 km/h 63% 0 mm
06:39 17.7 °C 10.6 °C 1011.4 hPa East 1.6 km/h 4.8 km/h 63% 0 mm
06:44 17.8 °C 10.6 °C 1011.4 hPa East 1.6 km/h 4.8 km/h 63% 0 mm
06:49 17.9 °C 11.1 °C 1011.4 hPa East 4.8 km/h 4.8 km/h 64% 0 mm
06:54 18.1 °C 10.9 °C 1011.4 hPa Calm   4.8 km/h 63% 0 mm
06:59 18.2 °C 11.2 °C 1011.7 hPa Calm   3.2 km/h 64% 0 mm
07:04 18.2 °C 11.1 °C 1011.4 hPa East 1.6 km/h 6.4 km/h 63% 0 mm
07:09 18.4 °C 11.4 °C 1011.4 hPa ESE 1.6 km/h 6.4 km/h 64% 0 mm
07:14 18.4 °C 11.4 °C 1011.4 hPa Calm   4.8 km/h 64% 0 mm
07:19 18.5 °C 11.6 °C 1011.7 hPa Calm   3.2 km/h 64% 0 mm
07:24 18.6 °C 11.9 °C 1011.7 hPa Calm     65% 0 mm
07:29 18.7 °C 12.4 °C 1011.1 hPa NE 6.4 km/h 8 km/h 67% 0 mm
07:34 18.7 °C 12.7 °C 1011.1 hPa ENE 3.2 km/h 8 km/h 68% 0 mm
07:39 18.8 °C 12.8 °C 1011.4 hPa ENE 3.2 km/h 8 km/h 68% 0 mm
07:44 19.1 °C 13 °C 1011.4 hPa ENE 1.6 km/h 4.8 km/h 68% 0 mm
07:49 19.3 °C 13.1 °C 1011.4 hPa ENE 1.6 km/h 3.2 km/h 67% 0 mm
07:54 19.4 °C 13.1 °C 1011.4 hPa Calm   3.2 km/h 67% 0 mm
07:59 19.5 °C 13.2 °C 1011.4 hPa ENE 1.6 km/h 6.4 km/h 67% 0 mm
08:04 19.5 °C 13.2 °C 1011.4 hPa ENE 1.6 km/h 6.4 km/h 67% 0 mm
08:09 19.6 °C 13.1 °C 1011.4 hPa ENE 1.6 km/h 6.4 km/h 66% 0 mm
08:14 19.8 °C 13.2 °C 1011.7 hPa Calm   4.8 km/h 66% 0 mm
08:19 20.1 °C 13.3 °C 1011.4 hPa Calm   4.8 km/h 65% 0 mm
08:24 20.3 °C 13.7 °C 1011.4 hPa ENE 1.6 km/h 4.8 km/h 66% 0 mm
08:29 20.2 °C 13.4 °C 1011.4 hPa Calm   4.8 km/h 65% 0 mm
08:34 20.4 °C 14.1 °C 1011.4 hPa ENE 1.6 km/h 4.8 km/h 67% 0 mm
08:39 20.8 °C 14.2 °C 1011.4 hPa Calm   4.8 km/h 66% 0 mm
08:44 21.4 °C 15.1 °C 1011.1 hPa ENE 1.6 km/h 3.2 km/h 67% 0 mm
08:49 21.6 °C 14.4 °C 1011.1 hPa ESE 1.6 km/h 4.8 km/h 64% 0 mm
08:54 21.5 °C 14.7 °C 1011.4 hPa ESE 1.6 km/h 3.2 km/h 65% 0 mm
08:59 21.6 °C 14.7 °C 1011.1 hPa ESE 1.6 km/h 3.2 km/h 65% 0 mm
09:04 21.6 °C 14.9 °C 1011.1 hPa ESE 1.6 km/h 4.8 km/h 66% 0 mm
09:09 21.6 °C 15 °C 1011.4 hPa Calm   4.8 km/h 66% 0 mm
09:14 21.7 °C 15.1 °C 1011.4 hPa SE 1.6 km/h 9.7 km/h 66% 0 mm
09:19 21.7 °C 15.1 °C 1011.4 hPa SSE 3.2 km/h 9.7 km/h 66% 0 mm
09:24 21.7 °C 15.6 °C 1011.4 hPa SSE 1.6 km/h 6.4 km/h 68% 0 mm
09:29 21.7 °C 16 °C 1011.4 hPa Calm   6.4 km/h 70% 0 mm
09:34 21.8 °C 16.3 °C 1011.4 hPa SSE 1.6 km/h 6.4 km/h 71% 0 mm
09:39 21.9 °C 16.7 °C 1011.4 hPa SW 1.6 km/h 6.4 km/h 72% 0 mm
09:44 22 °C 16.7 °C 1011.7 hPa WSW 4.8 km/h 4.8 km/h 72% 0 mm
09:49 21.9 °C 17.1 °C 1011.7 hPa Calm   9.7 km/h 74% 0 mm
09:54 21.6 °C 17.2 °C 1012.1 hPa WSW 1.6 km/h 11.3 km/h 76% 0 mm
09:59 21.3 °C 17.3 °C 1011.7 hPa Calm   4.8 km/h 78% 0.25 mm
10:04 20.9 °C 17.2 °C 1011.7 hPa Calm   4.8 km/h 79% 0.25 mm
10:09 20.7 °C 17.5 °C 1011.7 hPa Calm   3.2 km/h 82% 1.02 mm
10:14 20.3 °C 17.3 °C 1011.7 hPa Calm   3.2 km/h 83% 1.27 mm
10:19 20.1 °C 17.3 °C 1011.4 hPa Calm     84% 1.78 mm
10:24 20.1 °C 17.5 °C 1011.1 hPa Calm     85% 2.03 mm
10:29 20.1 °C 17.7 °C 1011.1 hPa Calm     86% 2.03 mm
10:34 20.3 °C 18.2 °C 1011.4 hPa Calm     88% 2.03 mm
10:39 20.6 °C 18.6 °C 1011.4 hPa Calm     88% 2.03 mm
10:44 21 °C 18.9 °C 1011.1 hPa Calm     88% 2.29 mm
10:49 21.5 °C 19.4 °C 1011.1 hPa Calm   3.2 km/h 88% 2.29 mm
10:54 21.7 °C 19.4 °C 1011.1 hPa Calm   4.8 km/h 87% 2.29 mm
10:59 21.9 °C 19.6 °C 1011.1 hPa SSE 3.2 km/h 4.8 km/h 87% 2.03 mm
11:04 22 °C 19.6 °C 1010.7 hPa SSE 1.6 km/h 4.8 km/h 86% 2.03 mm
11:09 22.3 °C 19.8 °C 1011.1 hPa South 1.6 km/h 4.8 km/h 86% 1.27 mm
11:14 23.3 °C 20.5 °C 1010.7 hPa South 1.6 km/h 4.8 km/h 84% 1.02 mm
11:19 23.9 °C 20.7 °C 1010.7 hPa SW 1.6 km/h 4.8 km/h 82% 0.51 mm
11:24 24.4 °C 20.5 °C 1010.7 hPa SSE 4.8 km/h 9.7 km/h 79% 0.25 mm
11:29 24.8 °C 20.7 °C 1010.7 hPa SSE 4.8 km/h 8 km/h 78% 0.25 mm
11:34 24.8 °C 20.1 °C 1010.7 hPa WSW 3.2 km/h 9.7 km/h 75% 0.25 mm
11:39 25.2 °C 20.7 °C 1010.7 hPa SSW 6.4 km/h 12.9 km/h 76% 0.25 mm
11:44 25.5 °C 20.9 °C 1010.7 hPa SSW 4.8 km/h 12.9 km/h 76% 0 mm
11:49 25.7 °C 20.9 °C 1010.7 hPa SW 4.8 km/h 12.9 km/h 75% 0 mm
11:54 26.3 °C 21.3 °C 1010.7 hPa SSW 4.8 km/h 12.9 km/h 74% 0 mm
11:59 26.7 °C 21.7 °C 1010.7 hPa SW 3.2 km/h 9.7 km/h 74% 0 mm
12:04 27 °C 21.5 °C 1010.7 hPa SSW 8 km/h 11.3 km/h 72% 0 mm
12:09 26.9 °C 21.2 °C 1010.7 hPa SSW 1.6 km/h 9.7 km/h 71% 0 mm
12:14 27.6 °C 21.7 °C 1010.4 hPa SW 8 km/h 11.3 km/h 70% 0 mm
12:19 27.4 °C 20.9 °C 1010.4 hPa SW 8 km/h 16.1 km/h 68% 0 mm
12:24 27.3 °C 20.6 °C 1010.4 hPa West 1.6 km/h 17.7 km/h 67% 0 mm
12:29 28 °C 20.6 °C 1010.4 hPa West 12.9 km/h 16.1 km/h 64% 0 mm
12:34 27.9 °C 20.2 °C 1010.4 hPa SSW 14.5 km/h 19.3 km/h 63% 0 mm
12:39 27.4 °C 20.1 °C 1010.4 hPa WSW 9.7 km/h 20.9 km/h 64% 0 mm
12:44 27.2 °C 20.3 °C 1010 hPa SW 9.7 km/h 20.9 km/h 66% 0 mm
12:49 27.4 °C 20.5 °C 1010 hPa WSW 9.7 km/h 19.3 km/h 66% 0 mm
12:54 27.9 °C 20.9 °C 1010 hPa WSW 8 km/h 19.3 km/h 66% 0 mm
12:59 27.8 °C 20.6 °C 1010 hPa West 9.7 km/h 19.3 km/h 65% 0 mm
13:04 27.9 °C 20.7 °C 1010 hPa West 9.7 km/h 19.3 km/h 65% 0 mm
13:09 27.9 °C 20.5 °C 1010 hPa West 3.2 km/h 16.1 km/h 64% 0 mm
13:14 27.7 °C 20.7 °C 1010 hPa WSW 11.3 km/h 16.1 km/h 66% 0 mm
13:19 27.3 °C 20.6 °C 1010 hPa West 14.5 km/h 20.9 km/h 67% 0 mm
13:24 27.7 °C 20.5 °C 1010 hPa West 4.8 km/h 17.7 km/h 65% 0 mm
13:29 27.9 °C 20.9 °C 1009.7 hPa SW 6.4 km/h 16.1 km/h 66% 0 mm
13:34 27.8 °C 20.4 °C 1010 hPa WSW 8 km/h 16.1 km/h 64% 0 mm
13:39 27.7 °C 20.2 °C 1010 hPa WSW 8 km/h 16.1 km/h 64% 0 mm
13:44 27.9 °C 20.7 °C 1010 hPa West 8 km/h 20.9 km/h 65% 0 mm
13:49 27.9 °C 20.2 °C 1010 hPa WSW 9.7 km/h 20.9 km/h 63% 0 mm
13:54 27.6 °C 19.9 °C 1009.7 hPa WSW 9.7 km/h 22.5 km/h 63% 0 mm
13:59 27.3 °C 20.4 °C 1009.7 hPa WSW 11.3 km/h 22.5 km/h 66% 0 mm
14:04 27.6 °C 19.9 °C 1009.7 hPa WSW 9.7 km/h 20.9 km/h 63% 0 mm
14:09 27.6 °C 19.9 °C 1009.7 hPa WSW 9.7 km/h 20.9 km/h 63% 0 mm
14:14 27.9 °C 20.2 °C 1009.7 hPa WSW 11.3 km/h 16.1 km/h 63% 0 mm
14:19 27.8 °C 20.1 °C 1009.7 hPa SW 9.7 km/h 20.9 km/h 63% 0 mm
14:24 27.6 °C 20.2 °C 1009.7 hPa West 11.3 km/h 17.7 km/h 64% 0 mm
14:29 27.6 °C 20.2 °C 1009.7 hPa SW 8 km/h 17.7 km/h 64% 0 mm
14:34 27.5 °C 19.8 °C 1009.7 hPa WNW 9.7 km/h 17.7 km/h 63% 0 mm
14:39 27.7 °C 20.3 °C 1009.7 hPa WSW 9.7 km/h 17.7 km/h 64% 0 mm
14:44 27.4 °C 20.1 °C 1009.4 hPa WSW 9.7 km/h 20.9 km/h 64% 0 mm
14:49 27.6 °C 20.4 °C 1009.4 hPa WSW 9.7 km/h 20.9 km/h 65% 0 mm
14:54 27.8 °C 19.8 °C 1009.4 hPa WSW 8 km/h 16.1 km/h 62% 0 mm
14:59 27.3 °C 19.9 °C 1009 hPa SW 6.4 km/h 16.1 km/h 64% 0 mm
15:04 27.4 °C 20.3 °C 1009 hPa West 9.7 km/h 14.5 km/h 65% 0 mm
15:09 27.4 °C 20.1 °C 1009 hPa West 9.7 km/h 16.1 km/h 64% 0 mm
15:14 27.1 °C 19.7 °C 1009 hPa WSW 8 km/h 19.3 km/h 64% 0 mm
15:19 27.3 °C 20.1 °C 1009 hPa WSW 8 km/h 19.3 km/h 65% 0 mm
15:24 27.4 °C 20 °C 1009 hPa WSW 8 km/h 14.5 km/h 64% 0 mm
15:29 27.2 °C 20 °C 1009 hPa SW 8 km/h 17.7 km/h 65% 0 mm
15:34 27.1 °C 19.9 °C 1009 hPa West 3.2 km/h 22.5 km/h 65% 0 mm
15:39 27.1 °C 19.9 °C 1009 hPa SW 6.4 km/h 12.9 km/h 65% 0 mm
15:44 27.4 °C 20.5 °C 1009 hPa WSW 6.4 km/h 14.5 km/h 66% 0 mm
15:49 27.3 °C 20.4 °C 1008.7 hPa WSW 6.4 km/h 14.5 km/h 66% 0 mm
15:54 27.7 °C 20.3 °C 1008.7 hPa WSW 4.8 km/h 12.9 km/h 64% 0 mm
15:59 27.4 °C 19.8 °C 1008.7 hPa WNW 6.4 km/h 17.7 km/h 63% 0 mm
16:04 27.6 °C 19.9 °C 1008.7 hPa SW 9.7 km/h 17.7 km/h 63% 0 mm
16:09 27.6 °C 20.4 °C 1008.4 hPa WSW 8 km/h 16.1 km/h 65% 0 mm
16:14 27.1 °C 19.7 °C 1008.4 hPa WSW 8 km/h 16.1 km/h 64% 0 mm
16:19 26.9 °C 19.8 °C 1008.4 hPa WSW 8 km/h 16.1 km/h 65% 0 mm
16:24 27.1 °C 19.9 °C 1008 hPa WSW 6.4 km/h 16.1 km/h 65% 0 mm
16:29 27.4 °C 20.2 °C 1008.4 hPa West 6.4 km/h 14.5 km/h 65% 0 mm
16:34 27.2 °C 20.1 °C 1008 hPa West 8 km/h 14.5 km/h 65% 0 mm
16:39 26.4 °C 19.3 °C 1008.4 hPa West 4.8 km/h 16.1 km/h 65% 0 mm
16:44 26.1 °C 19.5 °C 1008.4 hPa WSW 8 km/h 16.1 km/h 67% 0 mm
16:49 26 °C 20.1 °C 1008 hPa South 8 km/h 14.5 km/h 70% 0 mm
16:54 26.3 °C 19.9 °C 1008.4 hPa SW 8 km/h 12.9 km/h 68% 0 mm
16:59 26.2 °C 19.8 °C 1008.4 hPa WSW 4.8 km/h 14.5 km/h 68% 0 mm
17:04 25.9 °C 19.6 °C 1008 hPa WSW 11.3 km/h 16.1 km/h 68% 0 mm
17:09 25.3 °C 19.4 °C 1008 hPa North 8 km/h 17.7 km/h 70% 0 mm
17:14 25.1 °C 19.7 °C 1008 hPa SW 9.7 km/h 17.7 km/h 72% 0 mm
17:19 24.6 °C 19.2 °C 1008 hPa SW 8 km/h 17.7 km/h 72% 0 mm
17:24 24.2 °C 19.3 °C 1008.4 hPa SW 8 km/h 17.7 km/h 74% 0 mm
17:29 23.9 °C 19.2 °C 1008.4 hPa SW 6.4 km/h 14.5 km/h 75% 0 mm
17:34 23.9 °C 19.2 °C 1008.4 hPa WSW 8 km/h 14.5 km/h 75% 0 mm
17:39 23.9 °C 19.2 °C 1008.4 hPa South 9.7 km/h 16.1 km/h 75% 0 mm
17:44 23.7 °C 19.2 °C 1008.4 hPa WSW 6.4 km/h 16.1 km/h 76% 0 mm
17:49 23.4 °C 18.9 °C 1008.4 hPa SW 11.3 km/h 12.9 km/h 76% 0 mm
17:54 23.3 °C 19.1 °C 1008.4 hPa West 6.4 km/h 12.9 km/h 77% 0 mm
17:59 23.2 °C 18.9 °C 1008.4 hPa SW 6.4 km/h 14.5 km/h 77% 0 mm
18:04 23.3 °C 19.1 °C 1008.4 hPa WSW 6.4 km/h 11.3 km/h 77% 0 mm
18:09 23.3 °C 18.9 °C 1008.4 hPa WSW 1.6 km/h 11.3 km/h 76% 0 mm
18:14 23.3 °C 18.9 °C 1008.4 hPa SW 6.4 km/h 12.9 km/h 76% 0 mm
18:19 23.3 °C 18.9 °C 1008.7 hPa SW 6.4 km/h 16.1 km/h 76% 0 mm
18:24 23.3 °C 18.9 °C 1008.7 hPa SW 6.4 km/h 16.1 km/h 76% 0 mm
18:29 23.3 °C 18.8 °C 1008.7 hPa SW 6.4 km/h 11.3 km/h 76% 0 mm
18:34 23.1 °C 18.8 °C 1008.7 hPa WSW 8 km/h 12.9 km/h 77% 0 mm
18:39 22.8 °C 18.6 °C 1008.7 hPa SW 3.2 km/h 16.1 km/h 77% 0 mm
18:44 22.8 °C 18.6 °C 1008.7 hPa SW 6.4 km/h 16.1 km/h 77% 0 mm
18:49 22.8 °C 18.6 °C 1008.7 hPa SW 6.4 km/h 16.1 km/h 77% 0 mm
18:54 22.8 °C 18.7 °C 1008.7 hPa SSW 6.4 km/h 16.1 km/h 78% 0 mm
18:59 22.8 °C 18.6 °C 1008.4 hPa SSW 4.8 km/h 12.9 km/h 77% 0 mm
19:04 22.9 °C 18.7 °C 1008.4 hPa SW 4.8 km/h 11.3 km/h 77% 0 mm
19:09 22.9 °C 18.7 °C 1008.4 hPa SW 9.7 km/h 12.9 km/h 77% 0 mm
19:14 23 °C 18.3 °C 1008.4 hPa SSW 4.8 km/h 12.9 km/h 75% 0 mm
19:19 23.2 °C 18.5 °C 1008.4 hPa SSW 4.8 km/h 9.7 km/h 75% 0 mm
19:24 23.3 °C 18.4 °C 1008.4 hPa SW 4.8 km/h 6.4 km/h 74% 0 mm
19:29 23.5 °C 18.6 °C 1008.4 hPa WSW 6.4 km/h 8 km/h 74% 0 mm
19:34 23.6 °C 18.7 °C 1008.4 hPa WSW 4.8 km/h 6.4 km/h 74% 0 mm
19:39 23.7 °C 18.6 °C 1008.4 hPa West 1.6 km/h 9.7 km/h 73% 0 mm
19:44 23.7 °C 18.6 °C 1008.4 hPa SW 3.2 km/h 9.7 km/h 73% 0 mm
19:49 23.8 °C 18.7 °C 1008.4 hPa SW 3.2 km/h 8 km/h 73% 0 mm
19:54 23.8 °C 18.5 °C 1008.7 hPa WSW 3.2 km/h 11.3 km/h 72% 0 mm
19:59 23.8 °C 18.4 °C 1008.7 hPa West 6.4 km/h 12.9 km/h 72% 0 mm
20:04 23.6 °C 18.5 °C 1008.7 hPa WSW 4.8 km/h 9.7 km/h 73% 0 mm
20:09 23.5 °C 18.4 °C 1008.7 hPa SW 6.4 km/h 11.3 km/h 73% 0 mm
20:14 23.5 °C 18.6 °C 1008.7 hPa WSW 6.4 km/h 11.3 km/h 74% 0 mm
20:19 23.3 °C 18.4 °C 1008.7 hPa SW 8 km/h 14.5 km/h 74% 0 mm
20:24 23.3 °C 18.4 °C 1008.7 hPa SW 6.4 km/h 11.3 km/h 74% 0 mm
20:29 23.2 °C 18.3 °C 1008.7 hPa SSW 3.2 km/h 11.3 km/h 74% 0 mm
20:34 23.2 °C 18.5 °C 1008.7 hPa SSW 4.8 km/h 9.7 km/h 75% 0 mm
20:39 23.2 °C 18.6 °C 1008.7 hPa WSW 4.8 km/h 9.7 km/h 75% 0 mm
20:44 23.1 °C 18.2 °C 1008.7 hPa SW 4.8 km/h 11.3 km/h 74% 0 mm
20:49 23.1 °C 18.4 °C 1008.7 hPa SW 6.4 km/h 11.3 km/h 75% 0 mm
20:54 23.1 °C 18.4 °C 1008.7 hPa WSW 6.4 km/h 11.3 km/h 75% 0 mm
20:59 23 °C 18.3 °C 1008.7 hPa SW 4.8 km/h 12.9 km/h 75% 0 mm
21:04 22.9 °C 18.4 °C 1008.7 hPa WSW 6.4 km/h 11.3 km/h 76% 0 mm
21:09 22.7 °C 18.4 °C 1008.7 hPa West 6.4 km/h 9.7 km/h 77% 0 mm
21:14 22.4 °C 18.2 °C 1009 hPa WSW 4.8 km/h 9.7 km/h 77% 0 mm
21:19 22.2 °C 18.2 °C 1009 hPa WSW 4.8 km/h 9.7 km/h 78% 0 mm
21:24 22.1 °C 18.1 °C 1009 hPa WSW 4.8 km/h 11.3 km/h 78% 0 mm
21:29 21.9 °C 18.1 °C 1009 hPa SW 3.2 km/h 9.7 km/h 79% 0 mm
21:34 21.9 °C 18.3 °C 1009 hPa WSW 4.8 km/h 9.7 km/h 80% 0 mm
21:39 21.9 °C 18.3 °C 1009 hPa WSW 3.2 km/h 8 km/h 80% 0 mm
21:44 21.9 °C 18.3 °C 1009.4 hPa SW 3.2 km/h 9.7 km/h 80% 0 mm
21:49 21.9 °C 18.1 °C 1009 hPa SW 3.2 km/h 11.3 km/h 79% 0 mm
21:54 22 °C 18.2 °C 1009 hPa SW 4.8 km/h 11.3 km/h 79% 0 mm
21:59 22 °C 18.2 °C 1009.4 hPa WSW 6.4 km/h 16.1 km/h 79% 0 mm
22:04 21.9 °C 18.1 °C 1009.4 hPa WSW 3.2 km/h 6.4 km/h 79% 0 mm
22:09 21.8 °C 18.2 °C 1009.4 hPa SW 3.2 km/h 11.3 km/h 80% 0 mm
22:14 21.7 °C 18.3 °C 1009.4 hPa SW 4.8 km/h 11.3 km/h 81% 0 mm
22:19 21.6 °C 18.2 °C 1009.4 hPa SW 4.8 km/h 8 km/h 81% 0 mm
22:24 21.5 °C 18.3 °C 1009 hPa WSW 4.8 km/h 9.7 km/h 82% 0 mm
22:29 21.4 °C 18.2 °C 1009 hPa SW 4.8 km/h 9.7 km/h 82% 0 mm
22:34 21.3 °C 18.3 °C 1009.4 hPa SW 4.8 km/h 16.1 km/h 83% 0 mm
22:39 21.3 °C 18.3 °C 1009.4 hPa SW 6.4 km/h 11.3 km/h 83% 0 mm
22:44 21.2 °C 18.2 °C 1009.4 hPa SW 4.8 km/h 11.3 km/h 83% 0 mm
22:49 21.2 °C 18.3 °C 1009.4 hPa SW 4.8 km/h 9.7 km/h 84% 0 mm
22:54 21.1 °C 18.3 °C 1009.4 hPa SW 6.4 km/h 11.3 km/h 84% 0 mm
22:59 21.1 °C 18.3 °C 1009.4 hPa SW 3.2 km/h 9.7 km/h 84% 0 mm
23:04 21.1 °C 18.2 °C 1009 hPa SW 11.3 km/h 11.3 km/h 84% 0 mm
23:09 21 °C 18.2 °C 1009 hPa SSW 4.8 km/h 9.7 km/h 84% 0 mm
23:14 20.9 °C 18.1 °C 1009 hPa SW 4.8 km/h 11.3 km/h 84% 0 mm
23:19 20.8 °C 18.2 °C 1009 hPa SW 3.2 km/h 9.7 km/h 85% 0 mm
23:24 20.8 °C 18.2 °C 1009 hPa SW 3.2 km/h 9.7 km/h 85% 0 mm
23:29 20.7 °C 18.3 °C 1009 hPa SW 3.2 km/h 8 km/h 86% 0 mm
23:34 20.7 °C 18.2 °C 1009 hPa SW 3.2 km/h 9.7 km/h 86% 0 mm
23:39 20.6 °C 18.2 °C 1009 hPa SW 4.8 km/h 9.7 km/h 86% 0 mm
23:44 20.6 °C 18.1 °C 1009 hPa SW 3.2 km/h 9.7 km/h 86% 0 mm
23:49 20.4 °C 18 °C 1009.4 hPa SSW 4.8 km/h 8 km/h 86% 0 mm
23:54 20.4 °C 18.2 °C 1009 hPa SW 3.2 km/h 6.4 km/h 87% 0 mm
23:59 20.4 °C 18.2 °C 1009 hPa SSW 1.6 km/h 9.7 km/h 87% 0 mm
Buffalo, New York, USA
Compliments of Weather Underground - 2.5 mb